User: anonymous   Login
Location: Unspecified
(0.0000°N, 0.0000°E)
Time: 21:47:34
(UTC+00:00)
Language:

Gonets-D1 - Orbit

View from above orbital plane
View from above orbital plane
View from above satellite
View from above satellite

Ground track
Ground track

The orbit data is extracted from the following two-line orbital elements,

1 23788U 96009B   17117.76851609 +.00000038 +00000-0 +15372-3 0  9993
2 23788 082.5672 279.7107 0007365 081.5914 278.6009 12.63138238976957
Epoch (UTC): 27 April 2017 18:26:39
Eccentricity: 0.0007365
inclination: 82.5672°
perigee height: 1404 km
apogee height: 1416 km
right ascension of ascending node: 279.7107°
argument of perigee: 81.5914°
revolutions per day: 12.63138238
mean anomaly at epoch: 278.6009°
orbit number at epoch: 97695

The dashed part of the orbit path shows where the satellite is in the earth's shadow,  

DLR